BEIDOU-2 IGSO-6

Last updated on Sat Apr 04 2026 00:02:52 GMT+0000 (Coordinated Universal Time)

1 41434U 16021A 26092.81344461 -.00000170 00000+0 00000+0 0 9993 2 41434 60.1276 38.7875 0058842 233.3821 307.4549 1.00273243 36729
UTC large
Height (km)
Speed (km/s)
/
Latitude / Longitude
Inclination (degrees)
Orbital Period (minutes)
Azimuth
Elevation
Range (km)
Doppler Factor

Next 0 passes for location: London (51.5072 / 0.1276)

Sorry there are no passes over London.